Flag for Norway Weather past 2 weeks in Melhus, Norway

43 °F

Rain. Mostly cloudy.

Feels Like: 38 °F
Forecast: 29 / 41 °F
Wind: 8 mph from West

Location: Trondheim / Vaernes

Current Time: Nov 27, 2015 at 4:53:49 AM

Latest Report: Nov 27, 2015 at 3:20 AM

Visibility: 5 mi

Pressure: 29.24 "Hg

Humidity: 100%

Dew point: 43 °F

Location of MelhusLocation

Historic Weather in Melhus — Graph


Melhus temperature yesterday

Maximum temperature yesterday: 50 °F (at 8:50 PM)
Minimum temperature yesterday: 36 °F (at 3:20 PM)
Average temperature yesterday: 40 °F

Past Weeks' High & Low Weather Summary

High50 °F (Nov 13, 1:20 PM)100% (Nov 12, 7:20 AM)29.83 "Hg (Nov 12, 7:20 AM)
Low25 °F (Nov 21, 6:50 AM)46% (Nov 14, 9:50 AM)29.12 "Hg (Nov 17, 4:20 PM)
Average35 °F83%29.45 "Hg
* Reported Nov 12 3:20 AM — Nov 27 3:20 AM, Melhus, Weather by CustomWeather, © 2015

Note: Actual official high and low records may vary slightly from our data, if they occured in-between our weather recording intervals... More about our weather records


Melhus weather history for previous 24 hours

Time TempWeatherWind HumidityBarometerVisibility
3:20 AM
Fri, Nov 27
43 °FRain. Mostly cloudy.8 mph100%29.24 "Hg5 mi
1:50 AM45 °FDrizzle. Mostly cloudy.7 mph93%29.24 "Hg3 mi
12:50 AM45 °FDrizzle. Dense fog.16 mph93%29.24 "Hg2 mi
12:20 AM45 °FHeavy rain. Mostly cloudy.17 mph93%29.24 "Hg2 mi
11:50 PM
Thu, Nov 26
46 °FHeavy rain. Mostly cloudy.16 mph93%29.21 "Hg1 mi
10:50 PM46 °FRain. Partly cloudy.23 mph87%29.18 "Hg3 mi
10:20 PM48 °FDrizzle. Low clouds.24 mph82%29.15 "Hg4 mi
9:50 PM50 °FPassing clouds.26 mph76%29.15 "HgN/A
9:20 PM48 °FPassing clouds.22 mph76%29.15 "HgN/A
8:50 PM50 °FPassing clouds.22 mph71%29.15 "HgN/A
8:20 PM46 °FPassing clouds.14 mph82%29.15 "HgN/A
7:50 PM45 °FPassing clouds.2 mph76%29.15 "HgN/A
7:20 PM39 °FLight rain. Passing clouds.6 mph93%29.15 "HgN/A
6:50 PM37 °FLight rain. Passing clouds.7 mph93%29.18 "HgN/A
6:20 PM39 °FLight rain. Passing clouds.5 mph87%29.18 "HgN/A
5:50 PM37 °FPassing clouds.1 mph87%29.18 "HgN/A
5:20 PM37 °FPassing clouds.5 mph87%29.21 "HgN/A
4:50 PM37 °FLight rain. Passing clouds.5 mph87%29.24 "HgN/A
4:20 PM37 °FLight rain. Passing clouds.5 mph81%29.27 "HgN/A
3:50 PM36 °FLight rain. Light fog.8 mph87%29.30 "Hg5 mi
3:20 PM36 °FLight rain. Fog.12 mph87%29.33 "HgN/A
2:50 PM37 °FRain. Partly sunny.9 mph81%29.36 "Hg6 mi
2:20 PM37 °FSprinkles. Partly sunny.10 mph75%29.42 "HgN/A
1:50 PM39 °FScattered showers. Partly sunny.12 mph65%29.45 "HgN/A
1:20 PM39 °FScattered showers. Partly sunny.10 mph65%29.45 "HgN/A
12:50 PM39 °FScattered showers. Partly sunny.10 mph61%29.47 "HgN/A
12:20 PM39 °FScattered clouds.10 mph61%29.50 "HgN/A
11:50 AM39 °FBroken clouds.13 mph61%29.50 "HgN/A
11:20 AM39 °FPartly sunny.9 mph65%29.53 "HgN/A
10:50 AM39 °FPartly sunny.16 mph70%29.56 "HgN/A
9:50 AM39 °FBroken clouds.17 mph70%29.56 "HgN/A
9:20 AM39 °FPartly sunny.18 mph70%29.56 "HgN/A
8:50 AM37 °FPassing clouds.10 mph75%29.56 "HgN/A
8:20 AM37 °FPassing clouds.10 mph75%29.56 "HgN/A
7:50 AM37 °FPassing clouds.10 mph75%29.56 "HgN/A
7:20 AM39 °FPassing clouds.17 mph70%29.56 "HgN/A
6:50 AM37 °FPassing clouds.17 mph75%29.56 "HgN/A
6:20 AM39 °FPassing clouds.16 mph75%29.56 "HgN/A
5:50 AM39 °FPassing clouds.16 mph75%29.56 "HgN/A
4:50 AM39 °FPassing clouds.15 mph75%29.56 "HgN/A
Weather by CustomWeather, © 2015

See weather overviewHow to use our weather pages